DW8102 Weather Reports


Display with metric or nautical units.
time (UTC)temp
F
wind
direction
speed
MPH
gust
MPH
rain 1hr
in
rain 24hr
in
rain mn
in
humidity
%
barometer
mb
20260902090036 63 185 1.0 7.0 0.00 0.00 0.00 79 1007.7
20260902084535 63 205 3.0 10.0 0.00 0.00 0.00 79 1007.7
20260902081534 62 191 4.0 10.0 0.00 0.00 0.00 80 1007.9
20260902080032 63 188 2.0 7.0 0.00 0.00 0.00 80 1007.8
20260902074532 62 224 2.0 8.0 0.00 0.00 0.00 80 1007.8
20260902071531 61 174 3.0 9.0 0.00 0.00 0.00 81 1007.7
20260902070029 61 195 3.0 11.0 0.00 0.00 0.00 82 1007.7
20260902064534 60 274 2.0 9.0 0.00 0.00 0.00 83 1007.6
20260902061543 60 193 3.0 8.0 0.00 0.00 0.00 85 1007.7
20260902060032 59 217 1.0 6.0 0.00 0.00 0.00 86 1007.7
20260902054532 59 191 4.0 11.0 0.00 0.00 0.00 86 1007.7
20260902051529 0 0.0 0.0 0.00 0.00 0.00 1007.6
20260902050025 0 0.0 0.0 0.00 0.00 0.00 1007.7
20260902044526 0 0.0 0.0 0.00 0.00 0.00 1007.6
20260902041513 0 0.0 0.0 0.00 0.00 0.00 1007.6
20260902040009 0 0.0 0.0 0.00 0.00 0.00 1007.7
20260902034507 55 187 1.0 4.0 0.00 0.00 0.00 93 1007.7
20260902031504 55 192 0.0 4.0 0.00 0.00 0.00 93 1007.8
20260902030004 56 188 1.0 3.0 0.00 0.00 0.00 93 1007.8
20260902024502 56 194 1.0 5.0 0.00 0.00 0.00 93 1007.9
20260902021600 57 200 0.0 2.0 0.00 0.00 0.00 92 1007.9
20260902020057 57 193 0.0 2.0 0.00 0.00 0.00 92 1008.0
20260902014556 57 194 0.0 3.0 0.00 0.00 0.00 92 1008.0
20260902011623 57 194 0.0 5.0 0.00 0.00 0.00 91 1008.0
20260902010053 57 205 0.0 2.0 0.00 0.00 0.00 91 1008.1
20260902004553 58 250 0.0 3.0 0.00 0.00 0.00 90 1008.1
20260902001550 59 204 0.0 2.0 0.00 0.00 0.00 89 1008.1
20260902000049 59 218 0.0 2.0 0.00 0.00 0.00 88 1008.0
20260901234554 59 270 1.0 3.0 0.00 0.00 0.00 88 1008.0
20260901231606 59 263 0.0 2.0 0.00 0.00 0.00 87 1008.2
20260901230056 59 219 0.0 1.0 0.00 0.00 0.00 87 1008.2
20260901224545 59 205 0.0 2.0 0.00 0.00 0.00 86 1008.2
20260901221609 59 195 0.0 2.0 0.00 0.00 0.00 87 1008.2
20260901220055 59 212 0.0 1.0 0.00 0.00 0.00 87 1008.1
20260901214543 59 200 0.0 0.0 0.00 0.00 0.00 86 1008.1
20260901211541 58 181 0.0 0.0 0.00 0.00 0.00 86 1008.1
20260901210040 58 243 0.0 0.0 0.00 0.00 0.00 84 1008.0
20260901204539 58 243 0.0 0.0 0.00 0.00 0.00 83 1008.0
20260901201540 57 243 0.0 0.0 0.00 0.00 0.00 83 1008.1
20260901200100 58 243 0.0 0.0 0.00 0.00 0.00 83 1008.1
20260901194546 58 250 0.0 0.0 0.00 0.00 0.00 81 1008.0
20260901191555 59 277 0.0 0.0 0.00 0.00 0.00 78 1008.0
20260901190031 58 277 0.0 0.0 0.00 0.00 0.00 79 1008.0
20260901184532 59 277 0.0 0.0 0.00 0.00 0.00 79 1007.9
20260901181525 61 277 0.0 0.0 0.00 0.00 0.00 77 1007.8
20260901180019 63 277 0.0 0.0 0.00 0.00 0.00 73 1007.7
20260901174515 66 276 0.0 0.0 0.00 0.00 0.00 68 1007.6
20260901171514 72 277 0.0 0.0 0.00 0.00 0.00 60 1007.5
20260901170012 75 277 0.0 0.0 0.00 0.00 0.00 58 1007.4
20260901164509 74 277 0.0 0.0 0.00 0.00 0.00 59 1007.3
20260901161504 72 274 0.0 1.0 0.00 0.00 0.00 57 1007.4
20260901160116 71 315 0.0 1.0 0.00 0.00 0.00 57 1007.4
20260901154559 71 309 0.0 0.0 0.00 0.00 0.00 59 1007.3
20260901151559 70 318 0.0 1.0 0.00 0.00 0.00 61 1007.3
20260901150110 70 316 0.0 1.0 0.00 0.00 0.00 68 1007.5
20260901144600 71 320 0.0 1.0 0.00 0.00 0.00 64 1007.5
20260901143156 71 322 0.0 1.0 0.00 0.00 0.00 68 1007.5
20260901141557 70 320 0.0 1.0 0.00 0.00 0.00 69 1007.6
20260901140128 70 290 0.0 0.0 0.00 0.00 0.00 68 1007.6
20260901134549 70 316 0.0 1.0 0.00 0.00 0.00 69 1007.6
20260901133148 69 229 0.0 2.0 0.00 0.00 0.00 70 1007.8
20260901131547 69 224 0.0 1.0 0.00 0.00 0.00 71 1007.7
20260901130045 68 295 0.0 1.0 0.00 0.00 0.00 72 1007.7
20260901124544 69 316 0.0 1.0 0.00 0.00 0.00 72 1007.7
20260901123143 68 259 0.0 1.0 0.00 0.00 0.00 73 1007.7
20260901121540 67 316 0.0 1.0 0.00 0.00 0.00 75 1007.6
20260901120039 66 322 0.0 3.0 0.00 0.00 0.00 76 1007.6
20260901114537 66 322 0.0 1.0 0.00 0.00 0.00 78 1007.7
20260901113138 67 307 0.0 1.0 0.00 0.00 0.00 78 1007.7
20260901111532 66 309 0.0 1.0 0.00 0.00 0.00 78 1007.7
20260901110031 66 290 1.0 2.0 0.00 0.00 0.00 80 1007.6
20260901104529 65 323 0.0 3.0 0.00 0.00 0.00 80 1007.6
20260901103128 65 341 1.0 2.0 0.00 0.00 0.00 82 1007.6
20260901101550 65 315 0.0 2.0 0.00 0.00 0.00 83 1007.5
20260901100027 65 312 0.0 1.0 0.00 0.00 0.00 80 1007.5
20260901094535 64 259 0.0 1.0 0.00 0.00 0.00 81 1007.5
20260901093124 64 247 0.0 0.0 0.00 0.00 0.00 81 1007.4